Terminal Aerodrome Forecast
Issued by NWS

Home | Current Version | Previous Version | Text Only | Print | Product List | Glossary On
Versions: 1 2 3 4 5 6 7 8 9 10 11 12 13
000
FTAK31 PAFA 311140
TAFAGA
TAF
PAGA 311140Z 3112/0112 VRB04KT P6SM OVC060
     FM312100 03008KT P6SM BKN060 BKN180=

USA.gov is the U.S. government's official web portal to all federal, state and local government web resources and services.